Location: Balagbag Mahabang Kahoy
(14.1562°N, 120.9200°E)
Time: 05:15:18
(UTC+00:00)

Cosmos 1500 Rocket - Pass Details

Date: 16 January 2026
Orbit: 597 x 623 km, 82.5° (Epoch: 14 February)

Event Time Altitude Azimuth Distance (km) Brightness Sun altitude
Rises 20:49:07 0° 179° (S) 2,835 7.2 -22.7°
Reaches altitude 10° 20:51:19 10° 177° (S) 1,937 6.3 -22.2°
Maximum altitude 20:55:35 69° 94° (E) 645 3.7 -21.2°
Drops below altitude 10° 20:59:53 10° 10° (N) 1,954 6.0 -20.2°
Sets 21:02:06 0° 8° (N) 2,863 6.9 -19.7°
